Date String (YYYY-MM-DD hh:mm:ss) UTC,Instrument flags,absolute air pressure of the measurement (hPa),sample flow rate (lpm),inlet stack bypass flow (lpm),air temperature of the measurement (°C),ambient temperature measured by the external sensor (°C),aerosol sample conditioner tube jacket temperature (°C),OPC LED temperature (°C),internal box temperature (°C),relative humidity of the measurement (%),span deviation,mass concentration of particles derived from Lorenz-Mie calculation of OPC scattering (μg/m³),mass concentration of particles derived from Lorenz-Mie calculation of OPC scattering (μg/m³),mass concentration of particles derived from Lorenz-Mie calculation of OPC scattering (μg/m³)
DateTimeUTC,F1_M11,P_M11,Q1_M11,Q2_M11,T1_M11,T2_M11,T3_M11,T4_M11,T5_M11,U1_M11,ZSPAN_M11,X0_M11,X2_M11,X1_M11
2024-04-19 08:00:00,SystemResetWarning,0833.0,4.99,000.00,019.7,019.1,000.0,028.1,021.4,024.6,0000.0,0006.46,0004.86,0004.62
2024-04-19 08:01:00,SystemResetWarning,0832.9,4.99,000.00,019.7,019.1,000.0,028.1,021.4,024.6,0000.0,0006.37,0004.83,0004.60
2024-04-19 08:02:00,SystemResetWarning,0832.8,5.00,000.00,019.7,019.1,000.0,028.1,021.4,024.6,0000.0,0006.40,0004.82,0004.59
2024-04-19 08:03:00,SystemResetWarning,0832.8,5.00,000.00,019.7,019.1,000.0,028.1,021.4,024.6,0000.0,0006.56,0004.85,0004.60
2024-04-19 08:04:00,SystemResetWarning,0833.1,5.00,000.00,019.7,019.1,000.0,028.1,021.4,024.7,0000.0,0006.66,0004.86,0004.59
2024-04-19 08:05:00,SystemResetWarning,0833.4,5.00,000.00,019.7,019.1,000.0,028.1,021.4,024.7,0000.0,0006.64,0004.85,0004.58
2024-04-19 08:06:00,SystemResetWarning,0833.5,5.00,000.00,019.7,019.1,000.0,028.2,021.5,024.6,0000.0,0006.54,0004.80,0004.54
2024-04-19 08:07:00,SystemResetWarning,0833.4,5.00,000.00,019.7,019.1,000.0,028.1,021.5,024.6,0000.0,0006.36,0004.74,0004.49
2024-04-19 08:08:00,SystemResetWarning,0833.0,5.00,000.00,019.7,019.2,000.0,028.1,021.5,024.7,0000.0,0006.52,0004.69,0004.45
2024-04-19 08:09:00,SystemResetWarning,0832.8,5.01,000.00,019.7,019.2,000.0,028.2,021.5,024.6,0000.0,0006.98,0004.68,0004.45
2024-04-19 08:10:00,SystemResetWarning,0832.8,5.00,000.00,019.7,019.2,000.0,028.2,021.5,024.6,0000.0,0007.17,0004.71,0004.44
2024-04-19 08:11:00,SystemResetWarning,0832.7,5.00,000.00,019.7,019.2,000.0,028.2,021.5,024.6,0000.0,0007.14,0004.69,0004.42
2024-04-19 08:12:00,SystemResetWarning,0832.7,5.00,000.00,019.7,019.2,000.0,028.2,021.5,024.8,0000.0,0007.07,0004.66,0004.38
2024-04-19 08:13:00,SystemResetWarning,0832.7,5.00,000.00,019.7,019.2,000.0,028.2,021.5,025.4,0000.0,0007.19,0004.65,0004.35
2024-04-19 08:14:00,SystemResetWarning,0832.8,5.00,000.00,019.7,019.2,000.0,028.2,021.5,025.0,0000.0,0007.05,0004.58,0004.27
2024-04-19 08:15:00,SystemResetWarning,0832.7,5.00,000.00,019.7,019.2,000.0,028.2,021.5,024.7,0000.0,0006.90,0004.51,0004.22
2024-04-19 08:16:00,SystemResetWarning,0832.9,5.00,000.00,019.7,019.2,000.0,028.2,021.5,024.6,0000.0,0007.05,0004.50,0004.18
2024-04-19 08:17:00,SystemResetWarning,0833.0,5.00,000.00,019.7,019.2,000.0,028.2,021.5,024.6,0000.0,0007.08,0004.47,0004.14
2024-04-19 08:18:00,SystemResetWarning,0833.2,4.99,000.00,019.7,019.2,000.0,028.2,021.5,024.6,0000.0,0007.03,0004.44,0004.11
2024-04-19 08:19:00,SystemResetWarning,0833.5,4.99,000.00,019.7,019.2,000.0,028.2,021.5,024.7,0000.0,0006.84,0004.42,0004.10
2024-04-19 08:20:00,SystemResetWarning,0833.2,4.99,000.00,019.7,019.2,000.0,028.2,021.5,024.7,0000.0,0006.19,0004.41,0004.09
2024-04-19 08:21:00,SystemResetWarning,0833.3,5.01,000.00,019.7,019.2,000.0,028.2,021.5,024.7,0000.0,0006.21,0004.41,0004.10
2024-04-19 08:22:00,SystemResetWarning,0833.4,5.01,000.00,019.7,019.2,000.0,028.2,021.5,024.7,0000.0,0006.85,0004.45,0004.11
2024-04-19 08:23:00,SystemResetWarning,0833.3,5.00,000.00,019.7,019.2,000.0,028.2,021.5,024.7,0000.0,0006.99,0004.47,0004.13
2024-04-19 08:24:00,SystemResetWarning,0833.2,5.00,000.00,019.7,019.2,000.0,028.2,021.5,024.6,0000.0,0006.86,0004.43,0004.11
2024-04-19 08:25:00,SystemResetWarning,0832.8,5.00,000.00,019.7,019.2,000.0,028.2,021.5,024.6,0000.0,0006.84,0004.42,0004.09
2024-04-19 08:26:00,SystemResetWarning,0832.7,5.00,000.00,019.7,019.2,000.0,028.2,021.5,024.5,0000.0,0006.83,0004.40,0004.07
2024-04-19 08:27:00,SystemResetWarning,0832.7,5.00,000.00,019.7,019.2,000.0,028.2,021.5,024.5,0000.0,0006.53,0004.32,0004.01
2024-04-19 08:28:00,SystemResetWarning,0832.7,5.00,000.00,019.7,019.2,000.0,028.2,021.5,024.4,0000.0,0006.24,0004.25,0003.98
2024-04-19 08:29:00,SystemResetWarning,0832.7,5.00,000.00,019.7,019.2,000.0,028.2,021.5,024.4,0000.0,0006.24,0004.23,0003.94
2024-04-19 08:30:00,SystemResetWarning,0832.7,5.00,000.00,019.7,019.2,000.0,028.2,021.5,024.4,0000.0,0006.17,0004.17,0003.88
2024-04-19 08:31:00,SystemResetWarning,0832.7,5.00,000.00,019.7,019.2,000.0,028.2,021.5,024.4,0000.0,0006.15,0004.12,0003.81
2024-04-19 08:32:00,SystemResetWarning,0832.6,5.00,000.00,019.7,019.2,000.0,028.2,021.5,024.4,0000.0,0005.84,0004.01,0003.72
2024-04-19 08:33:00,SystemResetWarning,0832.5,5.00,000.00,019.7,019.2,000.0,028.2,021.5,024.4,0000.0,0005.10,0003.90,0003.64
2024-04-19 08:34:00,SystemResetWarning,0832.5,5.00,000.00,019.7,019.2,000.0,028.2,021.5,024.4,0000.0,0004.98,0003.87,0003.59
2024-04-19 08:35:00,SystemResetWarning,0832.6,5.00,000.00,019.7,019.2,000.0,028.2,021.5,024.4,0000.0,0004.81,0003.82,0003.55
2024-04-19 08:36:00,SystemResetWarning,0832.7,5.00,000.00,019.7,019.2,000.0,028.2,021.5,024.4,0000.0,0004.72,0003.81,0003.55
2024-04-19 08:37:00,SystemResetWarning,0832.7,5.00,000.00,019.7,019.2,000.0,028.2,021.5,024.4,0000.0,0004.69,0003.80,0003.54
2024-04-19 08:38:00,SystemResetWarning,0832.7,5.00,000.00,019.7,019.2,000.0,028.2,021.5,024.3,0000.0,0004.68,0003.80,0003.55
2024-04-19 08:39:00,SystemResetWarning,0832.7,5.00,000.00,019.7,019.2,000.0,028.2,021.5,024.3,0000.0,0004.76,0003.84,0003.58
2024-04-19 08:40:00,SystemResetWarning,0832.5,5.01,000.00,019.7,019.2,000.0,028.2,021.5,024.4,0000.0,0004.79,0003.87,0003.62
2024-04-19 08:41:00,SystemResetWarning,0832.5,5.00,000.00,019.7,019.2,000.0,028.2,021.5,024.3,0000.0,0004.85,0003.91,0003.66
2024-04-19 08:42:00,SystemResetWarning,0832.5,5.00,000.00,019.8,019.2,000.0,028.2,021.5,024.4,0000.0,0004.95,0003.95,0003.71
2024-04-19 08:43:00,SystemResetWarning,0832.5,5.00,000.00,019.7,019.2,000.0,028.2,021.5,024.3,0000.0,0004.97,0003.99,0003.75
2024-04-19 08:44:00,SystemResetWarning,0832.5,5.00,000.00,019.8,019.2,000.0,028.2,021.5,024.3,0000.0,0005.05,0004.04,0003.79
2024-04-19 08:45:00,SystemResetWarning,0832.5,5.00,000.00,019.8,019.2,000.0,028.2,021.5,024.3,0000.0,0005.08,0004.07,0003.84
2024-04-19 08:46:00,SystemResetWarning,0832.5,5.00,000.00,019.8,019.2,000.0,028.2,021.5,024.3,0000.0,0005.10,0004.10,0003.89
2024-04-19 08:47:00,SystemResetWarning,0832.4,5.00,000.00,019.8,019.2,000.0,028.2,021.5,024.3,0000.0,0005.15,0004.14,0003.93
2024-04-19 08:48:00,SystemResetWarning,0832.3,5.00,000.00,019.8,019.2,000.0,028.2,021.5,024.3,0000.0,0005.20,0004.17,0003.96
2024-04-19 08:49:00,SystemResetWarning,0832.3,4.99,000.00,019.8,019.2,000.0,028.2,021.5,024.3,0000.0,0005.27,0004.21,0004.00
2024-04-19 08:50:00,SystemResetWarning,0832.3,5.00,000.00,019.8,019.2,000.0,028.2,021.5,024.3,0000.0,0005.27,0004.23,0004.03
2024-04-19 08:51:00,SystemResetWarning,0832.4,5.01,000.00,019.8,019.2,000.0,028.2,021.5,024.3,0000.0,0005.25,0004.24,0004.05
2024-04-19 08:52:00,SystemResetWarning,0832.5,5.01,000.00,019.8,019.2,000.0,028.2,021.5,024.3,0000.0,0005.30,0004.27,0004.07
2024-04-19 08:53:00,SystemResetWarning,0832.5,5.00,000.00,019.8,019.2,000.0,028.2,021.5,024.2,0000.0,0005.26,0004.27,0004.09
2024-04-19 08:54:00,SystemResetWarning,0832.5,5.00,000.00,019.8,019.2,000.0,028.2,021.5,024.2,0000.0,0005.22,0004.27,0004.10
2024-04-19 08:55:00,SystemResetWarning,0832.5,4.99,000.00,019.8,019.2,000.0,028.2,021.5,024.2,0000.0,0005.25,0004.28,0004.10
2024-04-19 08:56:00,SystemResetWarning,0832.3,5.00,000.00,019.8,019.2,000.0,028.2,021.5,024.2,0000.0,0005.31,0004.29,0004.09
2024-04-19 08:57:00,SystemResetWarning,0832.3,5.00,000.00,019.8,019.2,000.0,028.2,021.5,024.2,0000.0,0005.22,0004.25,0004.05
2024-04-19 08:58:00,SystemResetWarning,0832.3,5.00,000.00,019.8,019.2,000.0,028.2,021.5,024.5,0000.0,0005.21,0004.21,0004.01
2024-04-19 08:59:00,SystemResetWarning,0832.3,5.01,000.00,019.8,019.2,000.0,028.2,021.6,025.2,0000.0,0005.08,0004.15,0003.96
